This is the latest recevied weather packets stored in our database for station/object KE4LOJ. If no packets are shown the sender has not sent any weather packets the latest 10 day(s).
| Time | Temp. | Humidity | Pressure | Rain* | Wind** | Luminosity | Snow |
|---|---|---|---|---|---|---|---|
| 1778072110 | 23.33° C | 85% | 1017.8 hPa | 0 mm | - | 103 W/m² | - |
| 1778071807 | 22.78° C | 85% | 1017.5 hPa | 0 mm | - | 93 W/m² | - |
| 1778071505 | 22.78° C | 85% | 1017.6 hPa | 0 mm | - | 81 W/m² | - |
| 1778071203 | 22.78° C | 86% | 1017.8 hPa | 0 mm | - | 92 W/m² | - |
| 1778070901 | 22.22° C | 87% | 1017.6 hPa | 0 mm | - | 84 W/m² | - |
| 1778070598 | 22.22° C | 88% | 1017.5 hPa | 0 mm | - | 71 W/m² | - |
| 1778070294 | 21.67° C | 88% | 1017.5 hPa | 0 mm | - | 68 W/m² | - |
| 1778069993 | 21.67° C | 89% | 1017.3 hPa | 0 mm | - | 73 W/m² | - |
| 1778069690 | 21.11° C | 90% | 1017.6 hPa | 0 mm | - | 73 W/m² | - |
| 1778069386 | 20.56° C | 91% | 1017.6 hPa | 0 mm | - | 76 W/m² | - |
| 1778069084 | 20° C | 91% | 1017.5 hPa | 0 mm | - | 70 W/m² | - |
| 1778068781 | 20° C | 92% | 1017.5 hPa | 0 mm | - | 63 W/m² | - |
| 1778068479 | 19.44° C | 93% | 1017.4 hPa | 0 mm | - | 58 W/m² | - |
| 1778068177 | 19.44° C | 95% | 1017.4 hPa | 0 mm | - | 60 W/m² | - |
| 1778067874 | 18.89° C | 95% | 1017.2 hPa | 0 mm | - | 56 W/m² | - |
| 1778067573 | 18.89° C | 96% | 1017.1 hPa | 0 mm | - | 51 W/m² | - |
| 1778067270 | 18.33° C | 96% | 1017.2 hPa | 0 mm | - | 43 W/m² | - |
| 1778066966 | 17.78° C | 96% | 1017.2 hPa | 0 mm | - | 38 W/m² | - |
| 1778066664 | 17.78° C | 96% | 1017.4 hPa | 0 mm | - | 32 W/m² | - |
| 1778066361 | 17.78° C | 96% | 1017.3 hPa | 0 mm | - | 27 W/m² | - |
| 1778066059 | 17.78° C | 96% | 1017.2 hPa | 0 mm | - | 21 W/m² | - |
| 1778065756 | 17.22° C | 96% | 1016.8 hPa | 0 mm | - | 15 W/m² | - |
| 1778065454 | 17.22° C | 96% | 1017.1 hPa | 0 mm | - | 11 W/m² | - |
| 1778065150 | 17.22° C | 96% | 1016.9 hPa | 0 mm | - | 8 W/m² | - |
| 1778064847 | 17.22° C | 96% | 1016.5 hPa | 0 mm | - | 6 W/m² | - |
* Rain latest hour (hover to see other rain measurements)
** Current wind speed in m/s (hover to see current wind gust speed)